Location: Maccacari
(45.1333°N, 11.1333°E)
Time: 14:28:49
(UTC+00:00)

S-56A Canister/Altair - Pass Details

Date: 25 January 2021
Orbit: 631 x 2501 km, 38.9° (Epoch: 01 March)

Event Time Altitude Azimuth Distance (km) Brightness Sun altitude
Rises 06:37:43 0° 266° (W) 3,109 10.1 -1.7°
Reaches altitude 10° 06:40:32 10° 247° (WSW) 2,348 9.6 -1.2°
Maximum altitude 06:44:15 19° 204° (SSW) 2,054 9.8 -0.6°
Drops below altitude 10° 06:48:51 10° 162° (SSE) 2,983 11.3 0.1°
Sets 06:53:04 0° 146° (SSE) 4,315 12.6 0.8°
